Regional Weather Roundup
Issued by NWS Upton, NY

Current Version | Previous Version | Graphics & Text | Print | Product List | Glossary Off
Versions: 1 2 3 4 5 6 7 8 9 10 11 12 13 14 15 16 17 18 19 20 21 22 23 24 25 26 27 28 29 30 31 32 33 34 35 36 37 38 39 40 41 42 43 44 45 46 47 48 49 50

424
ASUS41 KOKX 122104
RWROKX

REGIONAL WEATHER ROUNDUP
NATIONAL WEATHER SERVICE NEW YORK NY
400 PM EST FRI FEB 12 2016

NOTE: "FAIR" INDICATES FEW OR NO CLOUDS BELOW 12,000 FEET WITH NO
SIGNIFICANT WEATHER AND/OR OBSTRUCTIONS TO VISIBILITY.

NYZ071-072-176-178-NJZ106-104-122200-
NEW YORK CITY METRO AREA


CITY           SKY/WX    TMP DP  RH WIND       PRES   REMARKS
CENTRAL PARK   CLOUDY    26  -1  31 VRB6      30.06F WCI  19
LAGUARDIA APRT CLOUDY    27  -1  30 SW10      30.05F WCI  17
KENNEDY INTL   CLOUDY    26   3  37 SW9       30.07F WCI  17
NEWARK/LIBERTY CLOUDY    26   0  32 SW12      30.05F WCI  16
BRNX BOT. GARD   N/A     27   1  33 S20       30.06F WCI  13
TETERBORO      CLOUDY    28  -2  27 SW12      30.04F WCI  18
$$

NYZ177-179-078>081-122200-
LONG ISLAND NEW YORK

CITY           SKY/WX    TMP DP  RH WIND       PRES   REMARKS
FARMINGDALE    CLOUDY    24   7  48 SW7       30.07F WCI  16
ISLIP          CLOUDY    23   8  52 SW9       30.06F WCI  13
SHIRLEY        CLOUDY    23  10  57 SW6       30.08F WCI  16
RIVERHEAD        N/A     27   3  36 S7        30.06S WCI  19
WESTHAMPTON    CLOUDY    22   9  57 SW8       30.09F WCI  12
EAST HAMPTON   CLOUDY    22   7  52 SW7       30.08F WCI  14
MONTAUK POINT    N/A     24  10  55 SW6       30.09F WCI  17
$$

NYZ052-065-067-122200-
HUDSON VALLEY

CITY           SKY/WX    TMP DP  RH WIND       PRES   REMARKS
WHITE PLAINS   PTSUNNY   24  -1  33 SW7       30.00F WCI  16
NEWBURGH       MOSUNNY   25   1  36 W9G16     29.99F WCI  15
MONTGOMERY     CLOUDY    25   2  37 SW13      29.98F WCI  14
POUGHKEEPSIE   CLOUDY    27   0  31 S6        30.00F WCI  20
ALBANY         CLOUDY    24   2  38 S12       29.97F WCI  13
$$

NJZ001-105-106-008-010-013-015-019>022-104-122200-
NEW JERSEY

CITY           SKY/WX    TMP DP  RH WIND       PRES   REMARKS
NEWARK/LIBERTY CLOUDY    26   0  32 SW12      30.05F WCI  16
TETERBORO      CLOUDY    28  -2  27 SW12      30.04F WCI  18
CALDWELL       CLOUDY    24  -3  30 W7        30.04F WCI  16
MORRISTOWN     CLOUDY    23   3  42 W8        30.05F WCI  14
SOMERVILLE     CLOUDY    24   1  36 SW7       30.04F WCI  16
SUSSEX         CLOUDY    22   0  38 SW10      29.99F WCI  11
ANDOVER          N/A     21   2  43 SW8       30.00F WCI  11
TRENTON        CLOUDY    24   1  36 SW8       30.06F WCI  15
MILLVILLE      CLOUDY    26   5  40 W7        30.08F WCI  18
ATLANTIC CITY  MOSUNNY   26   2  35 W8        30.08F WCI  18
WRIGHTSTOWN    CLOUDY    25  -1  33 W9        30.04F WCI  15
TOMS RIVER     CLOUDY    27   0  31 SW10      30.07F WCI  17
BELMAR         CLOUDY    27   0  31 W8        30.05F WCI  18
$$

PAZ047>061-062-071-122200-
EASTERN PENNSYLVANIA

CITY           SKY/WX    TMP DP  RH WIND       PRES   REMARKS
PHILADELPHIA   NOT AVBL
ALLENTOWN      CLOUDY    22   6  50 SW8       30.03F WCI  12
SCRANTON       CLOUDY    19   6  57 W10       29.95F WCI   7
$$

CTZ002-004>006-009-010-012-RIZ004-006-007-MAZ004-011-015-122200-
SOUTHERN NEW ENGLAND
 IN CT

CITY           SKY/WX    TMP DP  RH WIND       PRES   REMARKS
BRADLEY INTL   CLOUDY    23   1  38 S9        30.02F WCI  13
HARTFORD       CLOUDY    23   4  44 S12       30.05F WCI  12
DANBURY        CLOUDY    23  -1  35 S8        30.01F WCI  14
WTRBRY/OXFORD  CLOUDY    21  -2  35 S10       30.01F WCI  10
BRIDGEPORT     CLOUDY    25   7  46 S12       30.06F WCI  14
MERIDEN        CLOUDY    23   2  40 S8        30.05F WCI  14
NEW HAVEN      CLOUDY    24   6  46 S8        30.06F WCI  15
CHESTER        FAIR      23   5  46 SW9       30.04F WCI  13
GROTON         CLOUDY    23  11  60 S13       30.07F WCI  11
WILLIMANTIC    CLOUDY    23   1  38 S10       30.04F WCI  12

 IN RI

CITY           SKY/WX    TMP DP  RH WIND       PRES   REMARKS
PROVIDENCE     CLOUDY    22   3  44 S12       30.07F WCI  10
BLOCK ISLAND   CLOUDY    25  10  54 SW12      30.06F WCI  14
WESTERLY       CLOUDY    23   7  50 SW8       30.08F WCI  14

 IN MA

CITY           SKY/WX    TMP DP  RH WIND       PRES   REMARKS
BOSTON         CLOUDY    23   2  40 SW9       30.06S WCI  13
WORCESTER      CLOUDY    18  -1  43 SW9       29.97S WCI   7
WESTFIELD      CLOUDY    22   1  40 SW13      30.01F WCI  10
PROVINCETOWN   MOSUNNY   23   7  50 S8        30.08F WCI  14
NANTUCKET      PTSUNNY   24   9  52 W6        30.09F WCI  17
$$

ANZ330-335-338-340-345-350-353-355-122200-
COASTAL MARINE OBSERVATIONS


STATION/POSITION TIME  SKY/WX   TEMP    WIND        PRES    VSBY  WAVE
                                AIR SEA DIR/SP/G                  HT/PER
                 (UTC)          (F)     (DEG/KT/KT) (MB)    (MI)  (FT/S)
NY HARB ENTRANCE 1950            25 42  200/  8/ 14 1018.9          1/ 9
4S FIRE IS       NOT AVBL
20S FIRE ISLAND  1950            24 41  220/ 12/ 16 1019.4          2/11
GREAT SOUTH BAY  NOT AVBL
23SW MTP         2050            25 45  250/ 12/ 16 1018.6          3/ 6
HUDSON CANYON    1950            27 48              1019.5          3/ 5
KINGS POINT      2000            24 36  220/ 15/ 19 1017.8
EXECUTION ROCKS  NOT AVBL
CENTRAL LI SOUND 2000            24     230/  8/ 10   N/A           1/ 3
EASTERN LI SOUND 2000            25 41  230/  8/ 14   N/A
ROBBINS REEF     2000            24     230/ 14/ 16 1017.7
$$


>>>>>>>>>>>>>>>>>>>>>>>>>>>> KEY <<<<<<<<<<<<<<<<<<<<<<<<<<<
>                                                          <
>     SKY/WX - SKY CONDITION/PRESENT WEATHER               <
>     TMP    - TEMPERATURE IN FAHRENHEIT                   <
>     DP     - DEWPOINT IN FAHRENHEIT                      <
>     RH     - RELATIVE HUMIDITY IN PERCENT                <
>     WIND   - DIRECTION AND SPEED IN MPH                  <
>     PRES   - MEAN SEA LEVEL PRESSURE IN INCHES OF HG     <
>     WCI    - WIND CHILL INDEX                            <
>     VSB    - VISIBILITY IN MILES                         <
>     HX     - HEAT INDEX                                  <
>     TC     - TEMPERATURE IN CELSIUS                      <
>     VRB    - VARIABLE WIND DIRECTION                     <
>                                                          <
>>>>>>>>>>>>>>>>>>>>>>>>>>>> KEY <<<<<<<<<<<<<<<<<<<<<<<<<<<






USA.gov is the U.S. government's official web portal to all federal, state and local government web resources and services.